This is the latest recevied weather packets stored in our database for station/object K6MBY. If no packets are shown the sender has not sent any weather packets the latest 10 day(s).
| Time | Temp. | Humidity | Pressure | Rain* | Wind** | Luminosity | Snow |
|---|---|---|---|---|---|---|---|
| 1777673986 | 11.11° C | 92% | 1020 hPa | 0 mm | - | 797 W/m² | - |
| 1777673682 | 11.11° C | 91% | 1020.3 hPa | 0 mm | - | 323 W/m² | - |
| 1777673381 | 11.11° C | 91% | 1020.3 hPa | 0 mm | - | 209 W/m² | - |
| 1777673078 | 12.22° C | 88% | 1020.3 hPa | 0 mm | - | 232 W/m² | - |
| 1777672773 | 12.22° C | 88% | 1020.2 hPa | 0 mm | - | 790 W/m² | - |
| 1777672471 | 11.67° C | 89% | 1020.4 hPa | 0 mm | - | 731 W/m² | - |
| 1777672165 | 12.22° C | 87% | 1020.4 hPa | 0 mm | - | 697 W/m² | - |
| 1777671861 | 12.22° C | 86% | 1020.2 hPa | 0 mm | - | 677 W/m² | - |
| 1777671557 | 12.78° C | 86% | 1020.3 hPa | 0 mm | - | 694 W/m² | - |
| 1777671254 | 13.33° C | 84% | 1020.4 hPa | 0 mm | - | 699 W/m² | - |
| 1777670950 | 12.78° C | 86% | 1020.4 hPa | 0 mm | - | 692 W/m² | - |
| 1777670647 | 12.22° C | 86% | 1020.4 hPa | 0 mm | - | 776 W/m² | - |
| 1777670343 | 12.78° C | 86% | 1020.3 hPa | 0 mm | - | 764 W/m² | - |
| 1777670041 | 13.33° C | 83% | 1020.4 hPa | 0 mm | - | 716 W/m² | - |
| 1777669739 | 13.89° C | 81% | 1020.4 hPa | 0 mm | - | 798 W/m² | - |
| 1777669435 | 13.89° C | 80% | 1020.2 hPa | 0 mm | - | 696 W/m² | - |
| 1777669131 | 13.33° C | 83% | 1020.3 hPa | 0 mm | - | 741 W/m² | - |
| 1777668828 | 12.78° C | 86% | 1020.5 hPa | 0 mm | - | 766 W/m² | - |
| 1777668525 | 12.78° C | 85% | 1020.4 hPa | 0 mm | - | 824 W/m² | - |
| 1777668221 | 13.33° C | 84% | 1020.2 hPa | 0 mm | - | 825 W/m² | - |
| 1777667918 | 13.89° C | 84% | 1020.4 hPa | 0 mm | - | 665 W/m² | - |
| 1777667615 | 13.33° C | 86% | 1020.3 hPa | 0 mm | - | 715 W/m² | - |
| 1777667312 | 12.78° C | 86% | 1020.4 hPa | 0 mm | - | 844 W/m² | - |
| 1777667009 | 13.33° C | 84% | 1020.4 hPa | 0 mm | - | 771 W/m² | - |
| 1777666705 | 12.22° C | 88% | 1020.5 hPa | 0 mm | - | 817 W/m² | - |
* Rain latest hour (hover to see other rain measurements)
** Current wind speed in m/s (hover to see current wind gust speed)